#datint,netname,site,siteID,timestamp,IntT,BattV,AirT2,AirT,AirT_Avg,AirT_Max,AirT_Min,RH_Avg,RH_Max,RH_Min,EA_Avg,Td_Avg,Td_Max,Td_Min,WindS_Smp,WindS_Avg,WindD_Avg,WindD_SD,WindS_Max,ETo,ETr,SoilT4,SoilT8,SoilVWC8,SolarW_Avg,wetstate_Avg,wetT_Avg,Precip_accum,Precip_WPG,Precip_TB
15min,AgWx,beryljct,423,12SEP2020:00:00:00,50.3,12.9,46.6,46.6,47.3,48.2,46.5,64,72,54,0.725,35.5,38.4,31.8,1.798,1.3,202,1.8,2.3,-0.00017,-0.00022,59.7,61.0,13,0,.,.,4.31,0.00,0.00
15min,AgWx,beryljct,423,12SEP2020:00:15:00,49.5,12.88,43.9,43.9,46.1,47.6,43.9,63,74,51,0.511,34.3,39.4,27.4,1.6,1.3,187,13,2.4,-0.00017,-0.00023,59.4,61.0,13,0,.,.,4.31,0.00,0.00
15min,AgWx,beryljct,423,12SEP2020:00:30:00,48.6,12.87,45.5,45.5,45.6,48.3,43.9,58,78,35,0.810,31.0,39.1,20.1,1.535,1.4,204,1.6,2.1,-0.00014,-0.00018,59.2,61.0,13,0,.,.,4.31,0.00,0.00
15min,AgWx,beryljct,423,12SEP2020:00:45:00,47.8,12.86,42.0,42.6,44.2,45.5,42.6,58,78,42,0.536,30.0,39.1,22.6,1.776,2.5,191,11,4.3,-0.00005,-0.00005,58.9,61.0,13,0,.,.,4.31,0.00,0.00
15min,AgWx,beryljct,423,12SEP2020:01:00:00,47.0,12.86,48.9,46.6,44.6,46.7,42.4,62,69,47,0.523,32.1,35.3,27.4,3.42,2.8,197,3.2,4.0,-0.00004,-0.00003,58.6,61.0,13,0,.,.,4.32,0.00,0.00
15min,AgWx,beryljct,423,12SEP2020:01:15:00,46.5,12.84,39.4,39.0,43.6,47.2,38.9,53,72,38,0.567,27.2,31.8,21.4,3.99,2.5,162,29,4.4,-0.00003,-0.00002,58.4,60.9,13,0,.,.,4.32,0.00,0.00
15min,AgWx,beryljct,423,12SEP2020:01:30:00,45.4,12.85,38.9,37.9,38.2,39.2,37.5,71,77,66,0.587,29.6,31.0,28.0,0.943,2.6,132,6.3,4.4,-0.00008,-0.00009,58.1,60.9,13,0,.,.,4.32,0.00,0.00
15min,AgWx,beryljct,423,12SEP2020:01:45:00,44.2,12.84,40.0,39.6,38.8,39.6,38.0,72,76,62,0.513,30.6,31.5,27.7,2.74,0.3,121,11,2.7,-0.00025,-0.00038,57.9,60.9,13,0,.,.,4.32,0.00,0.00
15min,AgWx,beryljct,423,12SEP2020:02:00:00,43.4,12.82,39.2,38.4,39.4,40.3,37.9,61,70,54,0.491,27.0,29.0,24.8,4.231,2.7,169,11,4.7,-0.00004,-0.00003,57.6,60.9,13,0,.,.,4.32,0.00,0.00
15min,AgWx,beryljct,423,12SEP2020:02:15:00,42.8,12.8,40.3,41.2,39.5,42.0,37.7,58,70,47,0.462,25.9,28.7,22.1,3.31,3.3,196,6.6,4.2,0.00000,0.00003,57.4,60.8,13,0,.,.,4.32,0.00,0.00
15min,AgWx,beryljct,423,12SEP2020:02:30:00,42.5,12.82,39.6,40.0,41.2,42.9,39.9,50,60,37,0.503,23.7,27.2,18.6,1.82,2.5,194,7.4,3.8,-0.00002,0.00000,57.1,60.8,13,0,.,.,4.32,0.00,0.00
15min,AgWx,beryljct,423,12SEP2020:02:45:00,42.2,12.8,38.7,38.7,39.2,39.9,38.5,60,67,53,0.501,26.3,28.6,23.9,0,2.3,185,7.4,4.0,-0.00007,-0.00007,56.9,60.7,13,0,.,.,4.32,0.00,0.00
15min,AgWx,beryljct,423,12SEP2020:03:00:00,41.8,12.79,40.0,40.2,39.6,40.8,38.6,59,69,49,0.468,26.2,29.2,22.7,2.565,0.9,76,60,2.6,-0.00019,-0.00027,56.7,60.7,13,0,.,.,4.32,0.00,0.00
15min,AgWx,beryljct,423,12SEP2020:03:15:00,41.6,12.78,40.3,39.4,39.4,41.3,37.5,52,60,46,0.376,23.4,25.8,20.3,2.214,2.5,20,15,3.3,-0.00003,-0.00002,56.4,60.6,13,0,.,.,4.32,0.00,0.00
15min,AgWx,beryljct,423,12SEP2020:03:30:00,41.1,12.76,37.0,36.5,38.1,40.1,36.2,53,65,44,0.356,22.4,26.2,19.0,0,0.5,20,3.3,2.3,-0.00023,-0.00034,56.2,60.6,13,0,.,.,4.32,0.00,0.00
15min,AgWx,beryljct,423,12SEP2020:03:45:00,40.4,12.75,37.5,38.0,37.5,38.2,36.6,53,62,47,0.472,21.8,26.0,18.7,0,0.2,20,5.7,0.7,-0.00026,-0.00040,56.0,60.5,13,0,.,.,4.32,0.00,0.00
15min,AgWx,beryljct,423,12SEP2020:04:00:00,39.8,12.76,38.6,37.9,37.3,38.0,36.6,64,69,60,0.465,26.2,27.6,25.1,0,0.1,111,0.3,0.5,-0.00028,-0.00044,55.8,60.4,13,0,.,.,4.32,0.00,0.00
15min,AgWx,beryljct,423,12SEP2020:04:15:00,39.4,12.72,38.5,37.2,37.7,38.9,36.3,63,74,57,0.487,26.3,28.9,25.0,0,0.1,131,0.0,0.5,-0.00027,-0.00042,55.6,60.4,13,0,.,.,4.32,0.00,0.00
15min,AgWx,beryljct,423,12SEP2020:04:30:00,39.1,12.73,38.0,38.3,37.7,38.5,36.6,65,75,56,0.537,26.9,29.7,23.7,0.943,0.7,165,32,1.7,-0.00020,-0.00029,55.4,60.3,13,0,.,.,4.32,0.00,0.00
15min,AgWx,beryljct,423,12SEP2020:04:45:00,38.9,12.72,37.6,38.6,40.0,44.2,36.6,62,76,43,0.550,27.5,29.8,23.2,1.162,1.1,208,4.2,1.7,-0.00017,-0.00023,55.2,60.2,13,0,.,.,4.32,0.00,0.00
15min,AgWx,beryljct,423,12SEP2020:05:00:00,38.6,12.71,35.8,36.3,37.2,38.5,36.3,70,77,65,0.507,28.5,30.0,26.6,1.293,1.7,126,46,2.5,-0.00013,-0.00016,54.9,60.2,13,0,.,.,4.32,0.00,0.00
15min,AgWx,beryljct,423,12SEP2020:05:15:00,38.1,12.7,34.6,34.8,34.7,36.2,34.2,73,82,66,0.460,27.0,29.7,24.8,2.148,1.8,167,25,3.1,-0.00012,-0.00016,54.7,60.1,13,0,.,.,4.32,0.00,0.00
15min,AgWx,beryljct,423,12SEP2020:05:30:00,37.6,12.68,34.0,34.3,34.1,34.8,33.4,67,79,53,0.419,24.2,27.8,19.1,1.184,2.2,183,2.8,3.2,-0.00008,-0.00010,54.6,60.0,13,0,.,.,4.32,0.00,0.00
15min,AgWx,beryljct,423,12SEP2020:05:45:00,37.0,12.68,34.1,34.0,34.2,34.8,33.7,60,72,48,0.467,21.8,25.6,16.5,2.784,2.2,183,4.5,3.4,-0.00007,-0.00007,54.4,60.0,13,0,.,.,4.32,0.00,0.00
15min,AgWx,beryljct,423,12SEP2020:06:00:00,36.7,12.68,36.5,35.8,35.1,35.8,33.9,61,71,53,0.439,22.8,25.4,20.3,0,1.4,190,0.1,2.8,-0.00012,-0.00015,54.2,59.9,13,0,.,.,4.32,0.00,0.00
15min,AgWx,beryljct,423,12SEP2020:06:15:00,36.3,12.66,31.6,32.1,35.3,36.6,32.1,61,71,57,0.355,23.2,25.5,19.0,2.806,1.0,301,56,4.1,-0.00016,-0.00022,54.0,59.8,13,0,.,.,4.32,0.00,0.00
15min,AgWx,beryljct,423,12SEP2020:06:30:00,35.8,12.64,35.2,33.9,31.7,33.9,30.1,55,62,48,0.317,17.4,19.1,16.0,3.003,3.2,324,6.2,4.1,0.00023,0.00040,53.8,59.7,13,0,.,.,4.32,0.00,0.00
15min,AgWx,beryljct,423,12SEP2020:06:45:00,35.5,12.65,36.0,35.5,35.0,36.1,34.0,49,52,47,0.345,17.6,18.7,16.4,2.017,1.8,330,14,3.5,0.00017,0.00030,53.6,59.7,13,0,.,.,4.32,0.00,0.00
15min,AgWx,beryljct,423,12SEP2020:07:00:00,35.5,12.64,32.6,32.9,34.5,35.5,32.9,60,71,49,0.438,21.8,24.8,18.3,0,1.0,351,0.2,2.6,0.00009,0.00015,53.4,59.6,13,0,.,.,4.32,0.00,0.00
15min,AgWx,beryljct,423,12SEP2020:07:15:00,35.1,12.64,33.2,33.1,32.9,33.3,32.4,71,74,67,0.432,24.6,25.5,23.5,0.592,0.0,352,0.0,0.6,0.00002,0.00002,53.3,59.5,13,3,.,.,4.32,0.00,0.00
15min,AgWx,beryljct,423,12SEP2020:07:30:00,34.8,12.65,33.4,33.8,33.2,34.2,32.2,62,77,52,0.347,21.3,26.0,18.3,2.959,1.3,351,0.6,3.0,0.00016,0.00023,53.1,59.4,13,16,.,.,4.32,0.00,0.00
15min,AgWx,beryljct,423,12SEP2020:07:45:00,34.9,12.67,32.7,33.6,32.2,33.8,31.4,57,65,52,0.367,18.8,21.1,17.3,2.653,2.2,350,8.9,3.3,0.00038,0.00052,52.9,59.3,13,56,.,.,4.32,0.00,0.00
15min,AgWx,beryljct,423,12SEP2020:08:00:00,35.6,12.69,37.5,37.3,34.7,37.4,32.9,55,62,43,0.324,20.0,22.1,16.7,4.845,2.8,355,22,5.1,0.00056,0.00075,52.8,59.2,13,96,.,.,4.32,0.00,0.00
15min,AgWx,beryljct,423,12SEP2020:08:15:00,37.4,12.75,42.9,42.1,38.8,42.1,36.7,45,49,38,0.350,19.1,20.2,16.8,5.042,4.1,338,6.9,5.7,0.00090,0.00124,52.6,59.2,13,140,.,.,4.32,0.00,0.00
15min,AgWx,beryljct,423,12SEP2020:08:30:00,40.6,12.87,47.6,46.9,44.8,46.9,42.2,35,38,33,0.357,18.6,19.4,17.9,4.823,5.0,347,8.8,5.9,0.00134,0.00187,52.4,59.1,13,188,.,.,4.32,0.00,0.00
15min,AgWx,beryljct,423,12SEP2020:08:45:00,44.2,13.18,50.1,49.5,48.2,49.5,47.0,34,38,31,0.382,21.1,24.1,18.8,3.573,4.2,359,9.6,5.3,0.00156,0.00208,52.3,59.0,13,237,.,.,4.30,0.00,0.00
15min,AgWx,beryljct,423,12SEP2020:09:00:00,47.8,13.56,49.7,49.7,49.7,50.9,48.9,45,62,29,0.598,28.7,36.6,20.0,2.587,2.4,107,86,4.4,0.00161,0.00193,52.2,58.9,13,289,.,.,4.31,0.00,0.00
15min,AgWx,beryljct,423,12SEP2020:09:15:00,50.9,14.42,50.5,50.3,49.7,50.3,49.2,49,56,44,0.546,31.1,34.7,28.7,1.688,2.6,148,11,3.4,0.00185,0.00218,52.1,58.8,13,342,.,.,4.30,0.00,0.00
15min,AgWx,beryljct,423,12SEP2020:09:30:00,53.6,14.35,52.5,52.8,51.4,53.4,50.3,43,48,39,0.542,29.5,32.8,27.4,1.513,1.6,136,8.0,2.4,0.00211,0.00241,52.1,58.8,13,393,.,.,4.30,0.00,0.00
15min,AgWx,beryljct,423,12SEP2020:09:45:00,56.5,14.36,55.4,55.0,53.7,55.0,52.5,41,49,33,0.484,30.3,34.7,26.3,1.14,1.5,139,9.6,2.4,0.00245,0.00277,52.1,58.7,13,444,.,.,4.30,0.00,0.00
15min,AgWx,beryljct,423,12SEP2020:10:00:00,59.1,14.32,55.4,55.5,55.0,55.5,54.6,39,45,31,0.636,30.5,34.4,25.4,2.565,1.6,112,17,3.3,0.00277,0.00313,52.1,58.6,13,493,.,.,4.30,0.00,0.00
15min,AgWx,beryljct,423,12SEP2020:10:15:00,61.4,14.29,57.5,57.6,56.6,57.6,55.5,42,49,35,0.650,33.5,38.4,30.1,2.959,2.1,105,13,3.0,0.00311,0.00354,52.2,58.5,13,540,.,.,4.29,0.00,0.00
15min,AgWx,beryljct,423,12SEP2020:10:30:00,63.6,14.19,59.4,59.3,58.6,59.4,57.6,38,46,30,0.513,33.0,38.0,27.4,2.083,1.9,96,12,3.1,0.00345,0.00390,52.3,58.5,13,585,.,.,4.29,0.00,0.00
15min,AgWx,beryljct,423,12SEP2020:10:45:00,65.8,14.18,61.5,61.3,60.4,61.5,59.3,35,41,26,0.484,32.6,37.5,26.3,0.636,1.4,75,13,2.9,0.00374,0.00418,52.5,58.4,13,628,.,.,4.28,0.00,0.00
15min,AgWx,beryljct,423,12SEP2020:11:00:00,68.4,14.15,63.7,64.3,63.1,65.0,61.3,31,41,26,0.796,32.1,38.7,27.4,1.776,0.8,108,28,2.2,0.00404,0.00442,52.8,58.3,13,667,.,.,4.28,0.00,0.00
15min,AgWx,beryljct,423,12SEP2020:11:15:00,70.8,14.11,65.1,65.9,65.2,66.9,64.1,32,39,29,0.742,34.8,39.7,31.3,1.863,1.0,123,19,2.5,0.00437,0.00481,53.1,58.2,13,704,.,.,4.27,0.00,0.00
15min,AgWx,beryljct,423,12SEP2020:11:30:00,72.8,13.66,67.5,68.6,66.8,68.7,65.6,34,41,28,0.825,37.2,42.8,32.7,1.03,1.4,119,7.9,2.6,0.00464,0.00514,53.5,58.2,13,731,.,.,4.27,0.00,0.00
15min,AgWx,beryljct,423,12SEP2020:11:45:00,74.5,13.61,69.4,69.4,68.8,69.5,68.2,31,39,23,0.731,36.4,43.1,30.0,2.061,1.6,107,17,2.8,0.00498,0.00555,53.9,58.2,13,769,.,.,4.27,0.00,0.00
15min,AgWx,beryljct,423,12SEP2020:12:00:00,75.9,13.59,70.6,70.6,70.1,70.6,69.4,31,44,26,0.663,38.2,46.8,32.9,3.266,2.5,92,8.9,3.6,0.00530,0.00601,54.4,58.1,13,796,.,.,4.26,0.00,0.00
15min,AgWx,beryljct,423,12SEP2020:12:15:00,77.1,13.58,72.9,72.6,71.8,72.6,70.7,31,44,24,0.777,39.2,48.4,32.1,1.271,2.2,106,13,3.5,0.00550,0.00621,55.0,58.1,13,819,.,.,4.27,0.00,0.00
15min,AgWx,beryljct,423,12SEP2020:12:30:00,78.7,13.54,75.1,75.8,73.8,76.1,72.7,28,40,16,0.570,38.3,48.5,27.0,1.447,1.5,81,34,2.8,0.00564,0.00627,55.6,58.1,13,837,.,.,4.27,0.00,0.00
15min,AgWx,beryljct,423,12SEP2020:12:45:00,80.6,13.5,75.4,75.8,75.7,76.8,75.1,25,33,15,0.953,36.7,43.8,24.6,2.455,1.5,76,37,3.0,0.00580,0.00645,56.3,58.1,13,854,.,.,4.27,0.00,0.00
15min,AgWx,beryljct,423,12SEP2020:13:00:00,82.4,13.45,76.5,76.8,76.6,77.3,75.8,22,39,13,0.568,34.3,49.5,22.2,1.841,1.6,92,15,3.1,0.00593,0.00662,57.0,58.1,13,867,.,.,4.27,0.00,0.00
15min,AgWx,beryljct,423,12SEP2020:13:15:00,83.8,13.46,77.9,78.0,77.6,78.3,76.8,20,33,12,0.393,32.4,45.9,21.4,0.548,1.3,64,17,1.8,0.00594,0.00659,57.8,58.1,13,872,.,.,4.26,0.00,0.00
15min,AgWx,beryljct,423,12SEP2020:13:30:00,85.1,13.44,78.4,78.4,78.4,78.9,78.0,16,27,11,0.571,28.8,42.0,19.3,0.46,1.1,69,15,2.3,0.00594,0.00656,58.5,58.1,13,876,.,.,4.26,0.00,0.00
15min,AgWx,beryljct,423,12SEP2020:13:45:00,86.1,13.4,79.0,78.8,78.7,79.4,78.4,20,30,12,0.798,33.4,45.1,22.9,1.82,1.6,125,18,2.9,0.00607,0.00679,59.3,58.2,13,876,.,.,4.26,0.00,0.00
15min,AgWx,beryljct,423,12SEP2020:14:00:00,86.8,13.36,79.3,79.6,79.6,82.1,78.8,21,33,11,0.608,35.7,47.1,20.9,1.513,1.7,137,18,2.7,0.00610,0.00683,60.1,58.2,13,872,.,.,4.26,0.00,0.00
15min,AgWx,beryljct,423,12SEP2020:14:15:00,87.5,13.34,79.9,79.8,80.0,81.1,79.4,17,30,12,0.543,31.1,45.7,22.6,2.74,2.4,135,17,5.5,0.00616,0.00704,60.9,58.3,13,866,.,.,4.26,0.00,0.00
15min,AgWx,beryljct,423,12SEP2020:14:30:00,87.9,13.35,81.1,80.0,79.9,80.9,78.9,23,36,13,0.593,37.8,49.8,25.0,1.951,2.9,127,46,7.1,0.00617,0.00711,61.6,58.4,13,853,.,.,4.26,0.00,0.00
15min,AgWx,beryljct,423,12SEP2020:14:45:00,88.4,13.35,80.2,80.3,80.2,81.4,79.5,19,30,11,0.556,34.0,45.8,21.8,2.938,2.9,95,40,5.6,0.00607,0.00705,62.4,58.4,13,838,.,.,4.26,0.00,0.00
15min,AgWx,beryljct,423,12SEP2020:15:00:00,88.8,13.33,78.6,79.2,80.1,80.5,79.2,24,40,13,1.036,39.2,53.5,25.8,3.924,3.7,93,36,10.3,0.00602,0.00709,63.1,58.5,12,815,.,.,4.26,0.00,0.00
15min,AgWx,beryljct,423,12SEP2020:15:15:00,89.0,13.31,80.0,80.3,80.5,82.5,79.1,24,38,10,1.218,38.9,52.6,20.4,1.381,3.1,121,56,7.2,0.00578,0.00673,63.7,58.6,13,792,.,.,4.26,0.00,0.00
15min,AgWx,beryljct,423,12SEP2020:15:30:00,89.6,13.29,82.5,82.9,81.3,82.9,80.3,19,38,12,0.642,34.9,52.6,23.7,1.315,2.7,156,16,4.9,0.00554,0.00644,64.4,58.7,13,766,.,.,4.27,0.00,0.00
15min,AgWx,beryljct,423,12SEP2020:15:45:00,89.7,13.3,79.7,79.7,80.5,82.9,79.7,27,38,15,1.220,42.9,52.2,29.2,4.099,4.3,120,27,7.4,0.00552,0.00663,65.0,58.8,12,733,.,.,4.27,0.00,0.00
15min,AgWx,beryljct,423,12SEP2020:16:00:00,89.0,13.27,79.1,79.2,79.5,80.6,78.4,28,40,15,1.005,43.5,52.2,29.3,6.335,5.3,133,16,9.1,0.00509,0.00629,65.5,59.0,12,662,.,.,4.26,0.00,0.00
15min,AgWx,beryljct,423,12SEP2020:16:15:00,87.7,13.34,81.7,81.6,79.4,81.6,78.2,24,34,13,0.478,38.3,47.8,25.2,2.872,6.5,83,35,14.2,0.00530,0.00676,65.9,59.1,12,660,.,.,4.27,0.01,0.00
15min,AgWx,beryljct,423,12SEP2020:16:30:00,87.7,13.31,78.6,80.2,81.9,83.3,80.2,18,35,9.3,1.239,32.3,50.3,19.3,3.486,2.9,105,40,5.5,0.00449,0.00537,66.3,59.3,12,621,.,.,4.27,0.00,0.00
15min,AgWx,beryljct,423,12SEP2020:16:45:00,87.9,13.3,82.1,80.6,79.0,80.6,78.1,35,43,23,0.814,49.1,55.0,39.3,1.293,3.2,124,22,5.6,0.00405,0.00482,66.6,59.4,12,565,.,.,4.27,0.00,0.00
15min,AgWx,beryljct,423,12SEP2020:17:00:00,88.4,13.26,81.8,81.3,83.0,84.3,80.8,15,28,8.9,1.008,30.3,44.8,18.8,0.965,2.2,1.5,34,8.6,0.00371,0.00444,66.9,59.6,12,534,.,.,4.27,0.00,0.00
15min,AgWx,beryljct,423,12SEP2020:17:15:00,88.8,13.27,79.4,81.8,81.3,82.5,79.8,19,28,11,0.858,34.2,44.0,23.5,3.814,4.3,40,19,7.0,0.00378,0.00487,67.0,59.8,12,485,.,.,4.27,0.00,0.00
15min,AgWx,beryljct,423,12SEP2020:17:30:00,88.7,13.25,83.4,82.7,80.5,82.7,79.4,26,35,9.8,0.374,42.3,50.5,20.2,2.894,2.3,85,38,5.4,0.00300,0.00363,67.2,59.9,12,438,.,.,4.27,0.00,0.00
15min,AgWx,beryljct,423,12SEP2020:17:45:00,88.0,13.29,83.7,83.5,81.6,83.5,78.7,16,30,9.3,0.364,29.6,46.2,19.4,5.239,5.0,25,19,9.7,0.00324,0.00445,67.2,60.1,12,388,.,.,4.27,0.00,0.00
15min,AgWx,beryljct,423,12SEP2020:18:00:00,87.3,13.29,79.5,80.7,81.0,83.9,78.3,18,28,9.3,0.744,32.4,43.4,19.6,2.959,4.4,52,22,8.3,0.00271,0.00375,67.2,60.3,12,337,.,.,4.27,0.00,0.00
15min,AgWx,beryljct,423,12SEP2020:18:15:00,86.3,13.35,82.7,80.8,80.1,81.8,78.8,20,36,9.9,0.475,35.1,50.5,19.3,0.855,2.9,43,13,5.8,0.00197,0.00268,67.2,60.4,12,285,.,.,4.27,0.00,0.00
15min,AgWx,beryljct,423,12SEP2020:18:30:00,85.6,13.34,78.7,77.9,81.0,83.4,77.4,30,55,9.2,1.204,43.2,60.6,18.9,0.723,0.4,235,48,1.8,0.00103,0.00118,67.0,60.6,12,234,.,.,4.27,0.00,0.00
15min,AgWx,beryljct,423,12SEP2020:18:45:00,84.3,13.34,74.7,74.6,77.5,80.3,73.2,32,48,19,1.060,44.4,54.3,32.6,2.499,2.1,147,39,3.2,0.00100,0.00141,66.9,60.8,12,183,.,.,4.27,0.00,0.00
15min,AgWx,beryljct,423,12SEP2020:19:00:00,82.4,13.22,74.4,74.8,78.4,81.5,74.5,27,44,11,1.306,38.8,52.0,22.3,1.337,2.5,165,18,3.4,0.00060,0.00093,66.8,60.9,12,136,.,.,4.27,0.01,0.00
15min,AgWx,beryljct,423,12SEP2020:19:15:00,80.1,13.14,73.8,73.4,74.6,77.0,71.6,32,46,16,0.942,41.8,52.2,27.7,0,1.3,164,5.0,2.1,0.00019,0.00032,66.6,61.1,12,92,.,.,4.27,0.00,0.00
15min,AgWx,beryljct,423,12SEP2020:19:30:00,77.4,13.08,72.6,71.6,73.3,74.9,71.3,28,35,21,0.751,38.0,45.0,31.9,0,0.1,151,12,0.9,-0.00026,-0.00040,66.4,61.2,12,52,.,.,4.28,0.01,0.00
15min,AgWx,beryljct,423,12SEP2020:19:45:00,74.7,13.04,71.6,72.3,73.0,73.9,71.7,22,28,19,0.581,32.3,36.6,29.2,0,0.2,114,5.7,0.9,-0.00042,-0.00066,66.2,61.3,12,14,.,.,4.28,0.00,0.00
15min,AgWx,beryljct,423,12SEP2020:20:00:00,72.0,13.03,72.5,71.4,71.5,73.5,67.1,22,44,15,0.493,29.0,45.2,22.4,0.022,0.2,150,8.4,1.3,-0.00048,-0.00075,65.9,61.5,12,3,.,.,4.29,0.00,0.00
15min,AgWx,beryljct,423,12SEP2020:20:15:00,69.3,13.02,68.1,67.3,68.5,72.1,66.9,31,37,17,0.744,35.8,39.9,25.3,0,0.0,133,3.8,0.3,-0.00049,-0.00078,65.6,61.6,12,0,.,.,4.30,0.01,0.00
15min,AgWx,beryljct,423,12SEP2020:20:30:00,67.1,13,65.0,66.5,68.0,69.1,66.5,28,33,24,0.673,33.5,36.9,30.4,0,0.0,71,2.8,0.8,-0.00049,-0.00077,65.3,61.7,12,0,.,.,4.29,0.00,0.00
15min,AgWx,beryljct,423,12SEP2020:20:45:00,65.5,12.98,66.4,67.7,67.4,68.9,65.9,24,32,19,0.570,29.5,35.5,25.5,2.674,0.7,76,6.2,2.7,-0.00031,-0.00044,65.0,61.8,12,0,.,.,4.30,0.00,0.00
15min,AgWx,beryljct,423,12SEP2020:21:00:00,63.8,12.98,57.5,57.3,60.6,67.4,57.2,40,47,28,0.705,36.1,40.6,32.4,1.447,1.7,152,36,2.9,-0.00009,-0.00009,64.4,61.9,12,0,.,.,4.30,0.00,0.00
15min,AgWx,beryljct,423,12SEP2020:21:15:00,61.8,12.97,60.9,61.5,58.7,61.5,56.2,37,48,22,0.445,32.1,37.3,22.5,7.958,3.7,187,8.9,9.8,0.00017,0.00028,63.7,61.9,12,0,.,.,4.30,0.00,0.00
15min,AgWx,beryljct,423,12SEP2020:21:30:00,61.2,12.97,68.0,67.7,64.5,67.7,61.4,20,25,16,0.392,22.0,25.7,20.1,4.604,5.5,180,10,8.3,0.00055,0.00079,63.1,62.0,12,0,.,.,4.30,0.00,0.00
15min,AgWx,beryljct,423,12SEP2020:21:45:00,61.2,12.96,60.6,61.0,63.8,68.1,60.2,21,27,15,0.397,22.6,27.7,18.7,3.858,3.8,169,13,6.2,0.00031,0.00049,62.6,62.1,12,0,.,.,4.30,0.00,0.00
15min,AgWx,beryljct,423,12SEP2020:22:00:00,60.4,12.95,62.0,58.9,59.0,63.3,55.6,29,43,18,0.486,25.8,35.1,17.3,4.012,3.5,168,36,6.0,0.00020,0.00033,62.1,62.1,12,0,.,.,4.30,0.00,0.00
15min,AgWx,beryljct,423,12SEP2020:22:15:00,59.8,12.93,56.6,56.4,60.0,62.8,56.4,25,35,19,0.480,23.6,30.1,19.4,4.779,4.9,152,13,7.4,0.00040,0.00058,61.7,62.1,12,0,.,.,4.30,0.00,0.00
15min,AgWx,beryljct,423,12SEP2020:22:30:00,58.3,12.94,53.7,52.4,52.6,56.8,49.1,45,58,29,0.527,31.0,35.6,24.3,3.661,3.3,160,68,4.8,0.00009,0.00016,61.4,62.1,12,0,.,.,4.30,0.00,0.00
15min,AgWx,beryljct,423,12SEP2020:22:45:00,56.8,12.93,55.4,54.1,53.9,56.1,52.5,33,43,24,0.399,25.2,31.1,18.0,3.705,2.9,341,23,4.2,0.00009,0.00016,61.0,62.1,12,0,.,.,4.30,0.00,0.00
15min,AgWx,beryljct,423,12SEP2020:23:00:00,55.5,12.92,46.6,50.9,52.3,54.7,50.7,40,50,27,0.635,28.1,33.0,21.3,1.14,1.2,292,74,5.1,-0.00017,-0.00021,60.7,62.1,12,0,.,.,4.30,0.00,0.00
15min,AgWx,beryljct,423,12SEP2020:23:15:00,54.2,12.92,48.8,47.9,49.8,52.5,47.3,44,55,31,0.532,28.5,33.7,22.3,4.253,2.1,330,61,5.7,-0.00005,-0.00004,60.4,62.1,12,0,.,.,4.30,0.00,0.00
15min,AgWx,beryljct,423,12SEP2020:23:30:00,52.9,12.91,51.5,54.0,49.2,54.7,46.2,48,62,26,0.518,29.5,34.7,20.4,1.491,2.2,280,20,4.1,-0.00004,-0.00002,60.1,62.1,12,0,.,.,4.30,0.00,0.00
15min,AgWx,beryljct,423,12SEP2020:23:45:00,52.0,12.91,49.5,49.1,51.1,56.2,48.6,44,56,21,0.612,29.0,34.2,16.6,3.025,1.9,228,53,3.5,-0.00007,-0.00007,59.8,62.0,12,0,.,.,4.31,0.01,0.00
15min,AgWx,beryljct,423,13SEP2020:00:00:00,51.2,12.9,50.2,49.3,49.0,51.6,47.1,45,56,34,0.429,28.5,32.5,23.0,0,0.4,201,1.5,2.9,-0.00028,-0.00042,59.5,62.0,12,0,.,.,4.31,0.00,0.00
15min,AgWx,beryljct,423,13SEP2020:00:15:00,50.5,12.88,45.8,45.1,48.5,49.9,44.8,56,73,37,0.521,33.2,40.9,24.1,3.376,1.9,103,56,4.5,-0.00010,-0.00012,59.2,62.0,12,0,.,.,4.31,0.00,0.00
15min,AgWx,beryljct,423,13SEP2020:00:30:00,49.7,12.88,42.1,42.3,44.2,45.9,42.2,57,67,42,0.615,29.7,33.5,24.0,2.324,2.8,146,50,4.5,-0.00002,-0.00000,59.0,61.9,12,0,.,.,4.31,0.00,0.00
15min,AgWx,bigpiney,439,12SEP2020:00:00:00,44.4,12.68,46.7,45.1,43.4,46.2,40.8,47,52,42,0.452,24.5,25.3,22.9,4.253,3.8,188,11,5.2,0.00007,0.00012,48.4,48.5,45,0,0,0.0,8.27,0.00,0.00
15min,AgWx,bigpiney,439,12SEP2020:00:15:00,43.5,12.67,45.2,44.7,43.4,45.8,40.0,46,52,42,0.440,24.1,24.8,23.4,1.644,2.7,213,16,4.3,-0.00000,0.00003,48.4,48.6,45,0,0,0.0,8.27,0.00,0.00
15min,AgWx,bigpiney,439,12SEP2020:00:30:00,42.8,12.66,43.1,45.3,45.3,47.1,42.8,43,46,40,0.436,23.9,24.3,23.2,3.354,1.9,165,26,3.5,-0.00008,-0.00007,48.3,48.5,45,0,0,0.0,8.27,0.00,0.00
15min,AgWx,bigpiney,439,12SEP2020:00:45:00,42.3,12.66,44.6,44.2,44.3,45.8,43.0,44,46,42,0.437,23.9,24.3,23.5,0.811,1.7,173,16,3.8,-0.00009,-0.00010,48.3,48.5,45,0,0,0.0,8.27,0.00,0.00
15min,AgWx,bigpiney,439,12SEP2020:01:00:00,41.8,12.65,47.1,46.6,45.0,46.6,43.9,43,44,40,0.431,23.7,23.9,23.4,4.538,3.3,250,18,4.7,0.00005,0.00010,48.3,48.6,45,0,0,0.0,8.27,0.00,0.00
15min,AgWx,bigpiney,439,12SEP2020:01:15:00,41.2,12.64,36.8,37.9,44.9,47.7,37.9,42,53,38,0.413,23.1,23.7,20.8,2.894,3.8,289,81,5.3,0.00010,0.00017,48.2,48.6,45,0,0,0.0,8.27,0.00,0.00
15min,AgWx,bigpiney,439,12SEP2020:01:30:00,40.8,12.63,32.1,33.1,37.2,38.7,33.1,55,63,53,0.399,22.7,23.4,20.7,2.806,1.3,194,48,3.9,-0.00014,-0.00019,48.2,48.6,45,0,0,0.0,8.27,0.00,0.00
15min,AgWx,bigpiney,439,12SEP2020:01:45:00,39.9,12.62,38.7,36.5,34.2,36.5,32.7,63,65,59,0.430,22.9,23.8,21.8,4.998,4.5,279,4.4,5.5,0.00002,0.00005,48.1,48.6,45,0,0,0.0,8.27,0.00,0.00
15min,AgWx,bigpiney,439,12SEP2020:02:00:00,39.0,12.62,32.7,32.8,36.4,39.0,32.7,58,65,53,0.412,22.8,23.7,21.9,5.371,5.5,273,11,6.2,0.00009,0.00013,48.1,48.6,45,0,0,0.0,8.27,0.00,0.00
15min,AgWx,bigpiney,439,12SEP2020:02:15:00,38.1,12.61,32.0,31.7,31.6,33.1,30.8,69,72,65,0.423,22.7,23.4,22.1,5.941,5.6,239,4.8,6.1,0.00003,0.00005,48.1,48.6,45,0,0,0.0,8.27,0.00,0.00
15min,AgWx,bigpiney,439,12SEP2020:02:30:00,37.2,12.6,35.5,34.3,32.4,34.3,31.4,69,72,65,0.435,23.5,23.8,23.1,5.261,5.8,238,8.1,6.5,0.00003,0.00005,48.0,48.5,45,0,0,0.0,8.27,0.00,0.00
15min,AgWx,bigpiney,439,12SEP2020:02:45:00,36.8,12.6,43.9,41.8,37.2,41.8,34.4,58,65,49,0.442,23.7,24.3,23.1,4.932,5.5,270,11,6.4,0.00009,0.00013,48.0,48.6,45,0,0,0.0,8.27,0.00,0.00
15min,AgWx,bigpiney,439,12SEP2020:03:00:00,37.0,12.59,44.7,43.9,45.0,46.7,42.0,42,48,39,0.424,23.1,24.0,22.8,6.204,5.6,295,7.4,6.5,0.00021,0.00029,47.9,48.6,45,0,0,0.0,8.27,0.00,0.00
15min,AgWx,bigpiney,439,12SEP2020:03:15:00,37.8,12.59,40.1,39.3,42.3,44.2,39.2,46,52,43,0.422,22.9,23.2,22.5,5.217,5.2,277,6.5,6.2,0.00015,0.00022,47.8,48.6,45,0,0,0.0,8.27,0.00,0.00
15min,AgWx,bigpiney,439,12SEP2020:03:30:00,38.1,12.57,32.1,31.8,33.5,39.8,30.4,64,72,51,0.423,22.5,23.2,21.2,4.867,3.8,228,23,5.4,-0.00000,0.00002,47.8,48.6,45,0,0,0.0,8.27,0.00,0.00
15min,AgWx,bigpiney,439,12SEP2020:03:45:00,37.5,12.57,34.1,33.4,31.9,33.5,30.9,70,72,67,0.431,23.4,23.9,22.8,3.771,4.9,229,8.1,5.5,0.00000,0.00002,47.7,48.6,45,0,0,0.0,8.27,0.00,0.00
15min,AgWx,bigpiney,439,12SEP2020:04:00:00,36.7,12.55,28.0,28.2,31.4,34.1,28.0,70,80,65,0.416,22.7,23.9,21.6,4.669,3.8,215,21,6.8,-0.00002,-0.00002,47.7,48.5,45,0,0,0.0,8.27,0.00,0.00
15min,AgWx,bigpiney,439,12SEP2020:04:15:00,35.8,12.54,31.5,30.8,28.8,30.8,27.9,80,81,75,0.439,23.4,24.2,22.5,6.533,6.4,215,5.7,8.6,-0.00001,0.00000,47.6,48.6,45,0,0,0.0,8.27,0.00,0.00
15min,AgWx,bigpiney,439,12SEP2020:04:30:00,35.2,12.53,34.1,33.0,32.7,33.9,30.8,69,75,65,0.424,23.6,23.9,23.1,4.362,5.6,244,9.2,7.6,0.00003,0.00005,47.5,48.6,45,0,0,0.0,8.27,0.00,0.00
15min,AgWx,bigpiney,439,12SEP2020:04:45:00,35.1,12.53,29.8,32.9,34.7,36.5,32.9,63,67,59,0.408,23.5,24.1,22.3,1.228,3.9,283,16,5.3,-0.00000,0.00002,47.5,48.6,45,0,0,0.0,8.27,0.00,0.00
15min,AgWx,bigpiney,439,12SEP2020:05:00:00,35.0,12.51,34.3,33.6,31.7,34.1,29.6,70,75,65,0.432,23.0,24.2,20.9,2.258,1.5,179,22,4.0,-0.00013,-0.00017,47.4,48.6,45,0,0,0.0,8.27,0.00,0.00
15min,AgWx,bigpiney,439,12SEP2020:05:15:00,34.7,12.5,34.9,33.7,35.1,36.9,32.7,62,68,59,0.426,23.5,24.2,22.1,1.6,2.3,187,9.8,3.2,-0.00008,-0.00008,47.4,48.5,45,0,0,0.0,8.27,0.00,0.00
15min,AgWx,bigpiney,439,12SEP2020:05:30:00,34.5,12.48,35.1,35.0,35.1,36.9,33.6,62,65,58,0.419,23.5,24.1,22.2,4.45,1.9,199,16,4.7,-0.00010,-0.00012,47.3,48.5,45,0,0,0.0,8.27,0.00,0.00
15min,AgWx,bigpiney,439,12SEP2020:05:45:00,34.2,12.47,34.5,37.0,36.3,37.8,34.8,60,63,55,0.436,23.8,24.5,21.2,1.688,2.8,199,16,4.7,-0.00004,-0.00003,47.3,48.5,45,0,0,0.0,8.27,0.00,0.00
15min,AgWx,bigpiney,439,12SEP2020:06:00:00,33.7,12.47,36.2,34.0,35.5,37.1,34.0,61,65,57,0.429,23.6,24.6,22.3,4.932,2.8,179,19,5.5,-0.00005,-0.00004,47.2,48.5,45,0,0,0.0,8.27,0.00,0.00
15min,AgWx,bigpiney,439,12SEP2020:06:15:00,33.1,12.45,28.3,27.4,30.4,34.7,27.0,71,77,63,0.389,22.2,24.1,20.2,3.113,3.9,217,21,5.3,-0.00002,-0.00002,47.2,48.5,45,0,0,0.0,8.27,0.00,0.00
15min,AgWx,bigpiney,439,12SEP2020:06:30:00,32.4,12.44,34.6,34.5,31.9,36.6,27.4,69,77,58,0.430,22.8,25.0,20.6,2.389,3.6,299,32,5.5,-0.00003,-0.00002,47.1,48.5,45,0,0,0.0,8.27,0.00,0.00
15min,AgWx,bigpiney,439,12SEP2020:06:45:00,32.1,12.42,34.4,36.2,35.9,37.2,34.5,60,64,57,0.415,23.6,24.1,22.6,1.644,2.6,302,16,3.2,-0.00005,-0.00005,47.0,48.5,45,0,0,0.0,8.27,0.00,0.00
15min,AgWx,bigpiney,439,12SEP2020:07:00:00,32.2,12.42,32.5,31.9,33.1,35.9,30.8,64,68,58,0.405,22.3,23.3,20.0,4.319,2.3,292,30,5.1,-0.00007,-0.00008,47.0,48.5,45,3,0,0.0,8.27,0.00,0.00
15min,AgWx,bigpiney,439,12SEP2020:07:15:00,32.2,12.43,33.4,33.7,33.8,34.4,31.9,65,68,64,0.420,23.2,23.6,22.2,3.99,3.9,302,15,4.7,-0.00012,0.00003,46.9,48.4,45,20,0,0.0,8.27,0.00,0.00